TimeMDT,TemperatureF,Dew PointF,Humidity,Sea Level PressureIn,VisibilityMPH,Wind Direction,Wind SpeedMPH,Gust SpeedMPH,PrecipitationIn,Events,Conditions,WindDirDegrees,DateUTC
12:10 AM,48.2,44.6,87,30.22,10.0,WNW,3.5,-,N/A,,Clear,290,2013-07-20 06:10:00
12:30 AM,48.2,44.6,87,30.22,10.0,Calm,Calm,-,N/A,,Clear,0,2013-07-20 06:30:00
12:50 AM,50.0,46.4,87,30.22,10.0,South,3.5,-,N/A,,Clear,180,2013-07-20 06:50:00
1:10 AM,46.4,42.8,87,30.23,10.0,SSW,3.5,-,N/A,,Clear,210,2013-07-20 07:10:00
1:30 AM,44.6,41.0,87,30.22,10.0,Calm,Calm,-,N/A,,Clear,0,2013-07-20 07:30:00
1:50 AM,44.6,39.2,81,30.22,10.0,Calm,Calm,-,N/A,,Clear,0,2013-07-20 07:50:00
2:10 AM,44.6,39.2,81,30.22,10.0,Calm,Calm,-,N/A,,Clear,0,2013-07-20 08:10:00
2:30 AM,42.8,42.8,100,30.22,10.0,SSW,4.6,-,N/A,,Clear,200,2013-07-20 08:30:00
2:50 AM,44.6,44.6,100,30.22,10.0,Calm,Calm,-,N/A,,Clear,0,2013-07-20 08:50:00
3:10 AM,41.0,41.0,100,30.22,10.0,Calm,Calm,-,N/A,,Clear,0,2013-07-20 09:10:00
3:30 AM,41.0,41.0,100,30.22,10.0,Calm,Calm,-,N/A,,Clear,0,2013-07-20 09:30:00
3:50 AM,39.2,39.2,100,30.22,10.0,Calm,Calm,-,N/A,,Clear,0,2013-07-20 09:50:00
4:10 AM,39.2,39.2,100,30.22,10.0,Calm,Calm,-,N/A,,Clear,0,2013-07-20 10:10:00
4:30 AM,39.2,39.2,100,30.22,10.0,Calm,Calm,-,N/A,,Clear,0,2013-07-20 10:30:00
4:50 AM,37.4,37.4,100,30.22,10.0,South,3.5,-,N/A,,Clear,180,2013-07-20 10:50:00
5:10 AM,37.4,37.4,100,30.22,10.0,SW,3.5,-,N/A,,Clear,230,2013-07-20 11:10:00
5:30 AM,37.4,37.4,100,30.21,10.0,Calm,Calm,-,N/A,,Clear,0,2013-07-20 11:30:00
5:50 AM,37.4,37.4,100,30.22,10.0,Calm,Calm,-,N/A,,Clear,0,2013-07-20 11:50:00
6:10 AM,37.4,37.4,100,30.22,10.0,Calm,Calm,-,N/A,,Clear,0,2013-07-20 12:10:00
6:30 AM,37.4,32.0,81,30.22,10.0,Calm,Calm,-,N/A,,Clear,0,2013-07-20 12:30:00
6:50 AM,39.2,35.6,87,30.21,10.0,Calm,Calm,-,N/A,,Clear,0,2013-07-20 12:50:00
7:10 AM,44.6,39.2,81,30.22,10.0,Calm,Calm,-,N/A,,Clear,0,2013-07-20 13:10:00
7:30 AM,46.4,41.0,81,30.22,10.0,Calm,Calm,-,N/A,,Clear,0,2013-07-20 13:30:00
7:50 AM,48.2,44.6,87,30.22,10.0,East,3.5,-,N/A,,Clear,80,2013-07-20 13:50:00
8:10 AM,50.0,46.4,87,30.22,10.0,Calm,Calm,-,N/A,,Clear,0,2013-07-20 14:10:00
8:30 AM,53.6,48.2,82,30.22,10.0,Calm,Calm,-,N/A,,Clear,0,2013-07-20 14:30:00
8:50 AM,55.4,51.8,88,30.22,10.0,Calm,Calm,-,N/A,,Clear,0,2013-07-20 14:50:00
9:10 AM,59.0,53.6,82,30.22,10.0,North,3.5,-,N/A,,Clear,350,2013-07-20 15:10:00
9:30 AM,60.8,57.2,88,30.21,10.0,NW,3.5,-,N/A,,Clear,320,2013-07-20 15:30:00
9:50 AM,64.4,59.0,83,30.21,10.0,NNW,3.5,-,N/A,,Clear,330,2013-07-20 15:50:00
10:10 AM,66.2,60.8,83,30.21,10.0,Calm,Calm,-,N/A,,Clear,0,2013-07-20 16:10:00
10:30 AM,68.0,62.6,83,30.20,10.0,Calm,Calm,-,N/A,,Clear,0,2013-07-20 16:30:00
10:50 AM,69.8,64.4,83,30.20,10.0,Calm,Calm,-,N/A,,Clear,0,2013-07-20 16:50:00
11:10 AM,71.6,66.2,83,30.19,10.0,SE,3.5,-,N/A,,Clear,130,2013-07-20 17:10:00
11:30 AM,73.4,68.0,83,30.19,10.0,North,3.5,-,N/A,,Clear,350,2013-07-20 17:30:00
11:50 AM,75.2,69.8,83,30.18,10.0,Calm,Calm,-,N/A,,Clear,0,2013-07-20 17:50:00
12:10 PM,77.0,71.6,83,30.17,10.0,NNW,8.1,-,N/A,,Clear,330,2013-07-20 18:10:00
12:30 PM,77.0,73.4,89,30.17,10.0,Calm,Calm,-,N/A,,Clear,0,2013-07-20 18:30:00
12:50 PM,77.0,73.4,89,30.16,10.0,NE,4.6,-,N/A,,Clear,50,2013-07-20 18:50:00
1:10 PM,77.0,73.4,89,30.16,10.0,WNW,5.8,16.1,N/A,,Clear,300,2013-07-20 19:10:00
1:30 PM,78.8,73.4,83,30.16,10.0,WNW,8.1,-,N/A,,Clear,290,2013-07-20 19:30:00
1:50 PM,78.8,73.4,83,30.15,10.0,North,6.9,16.1,N/A,,Clear,10,2013-07-20 19:50:00
2:10 PM,80.6,75.2,84,30.15,10.0,Calm,Calm,-,N/A,,Clear,0,2013-07-20 20:10:00
2:30 PM,80.6,75.2,84,30.14,10.0,North,4.6,-,N/A,,Clear,10,2013-07-20 20:30:00
2:50 PM,80.6,75.2,84,30.14,10.0,WSW,6.9,-,N/A,,Clear,250,2013-07-20 20:50:00
3:10 PM,80.6,75.2,84,30.14,10.0,West,5.8,-,N/A,,Clear,280,2013-07-20 21:10:00
3:30 PM,80.6,75.2,84,30.13,10.0,South,8.1,-,N/A,,Clear,190,2013-07-20 21:30:00
3:50 PM,80.6,75.2,84,30.13,10.0,SW,4.6,-,N/A,,Clear,230,2013-07-20 21:50:00
4:10 PM,82.4,77.0,84,30.12,10.0,SW,6.9,16.1,N/A,,Clear,230,2013-07-20 22:10:00
4:30 PM,82.4,77.0,84,30.12,10.0,NNW,6.9,-,N/A,,Clear,340,2013-07-20 22:30:00
4:50 PM,80.6,75.2,84,30.11,10.0,NNW,6.9,-,N/A,,Clear,340,2013-07-20 22:50:00
5:10 PM,82.4,77.0,84,30.11,10.0,NW,6.9,-,N/A,,Clear,320,2013-07-20 23:10:00
5:30 PM,82.4,77.0,84,30.10,10.0,West,6.9,-,N/A,,Clear,260,2013-07-20 23:30:00
5:50 PM,82.4,77.0,84,30.09,10.0,NNW,4.6,19.6,N/A,,Clear,330,2013-07-20 23:50:00
6:10 PM,82.4,77.0,84,30.09,10.0,North,9.2,-,N/A,,Clear,350,2013-07-21 00:10:00
6:30 PM,80.6,75.2,84,30.08,10.0,NNW,9.2,16.1,N/A,,Clear,330,2013-07-21 00:30:00
6:50 PM,80.6,75.2,84,30.08,10.0,NNW,5.8,-,N/A,,Clear,330,2013-07-21 00:50:00
7:10 PM,80.6,75.2,84,30.08,10.0,NW,6.9,-,N/A,,Clear,320,2013-07-21 01:10:00
7:30 PM,80.6,75.2,84,30.08,10.0,NNW,4.6,-,N/A,,Clear,330,2013-07-21 01:30:00
7:50 PM,78.8,75.2,89,30.08,10.0,NW,4.6,-,N/A,,Clear,320,2013-07-21 01:50:00
8:10 PM,78.8,73.4,83,30.08,10.0,South,8.1,-,N/A,,Clear,180,2013-07-21 02:10:00
8:30 PM,77.0,71.6,83,30.08,10.0,SSW,8.1,-,N/A,,Clear,210,2013-07-21 02:30:00
8:50 PM,75.2,69.8,83,30.08,10.0,SW,3.5,-,N/A,,Clear,230,2013-07-21 02:50:00
9:10 PM,71.6,66.2,83,30.08,10.0,WSW,3.5,-,N/A,,Clear,240,2013-07-21 03:10:00
9:30 PM,69.8,64.4,83,30.09,10.0,WSW,4.6,-,N/A,,Clear,250,2013-07-21 03:30:00
9:50 PM,68.0,62.6,83,30.09,10.0,SW,4.6,-,N/A,,Clear,220,2013-07-21 03:50:00
10:10 PM,62.6,57.2,82,30.09,10.0,Calm,Calm,-,N/A,,Clear,0,2013-07-21 04:10:00
10:30 PM,62.6,57.2,82,30.09,10.0,Calm,Calm,-,N/A,,Clear,0,2013-07-21 04:30:00
10:50 PM,59.0,55.4,88,30.09,10.0,South,3.5,-,N/A,,Clear,170,2013-07-21 04:50:00
11:10 PM,57.2,53.6,88,30.09,10.0,Calm,Calm,-,N/A,,Clear,0,2013-07-21 05:10:00
11:30 PM,55.4,50.0,82,30.09,10.0,Calm,Calm,-,N/A,,Clear,0,2013-07-21 05:30:00
11:50 PM,53.6,48.2,82,30.09,10.0,SSW,4.6,-,N/A,,Clear,200,2013-07-21 05:50:00